VTD663 UWLL-UWLS

Flight info

Callsign VTD663
Flight time N/A
Altitude 2500
Route BOLKL TASLA STOGO MAINA SMYSL ZELEC SUROV SKUGA
Aircraft C172/L-SDFGY/С

Departure

Time 2026-04-30 17:44
Airport Ulyanovsk Baratayevka Airport (UWLL)

Arrival

Time N/A
Airport Soldatskaya Tashla Airfield (UWLS)
Time Latitude Longitude Altitude Speed Heading
2026-04-30 17:39 54.27003 48.22785 411 ft 0 kts 345°
2026-04-30 17:41 54.27147 48.22724 408 ft 18 kts 347°
2026-04-30 17:42 54.27201 48.22755 407 ft 0 kts 33°
2026-04-30 17:44 54.27979 48.23573 780 ft 68 kts 30°
2026-04-30 17:44 54.29252 48.25085 1552 ft 81 kts 33°
2026-04-30 17:46 54.31141 48.22478 2474 ft 101 kts 299°
2026-04-30 17:47 54.28843 48.20561 2568 ft 124 kts 172°
2026-04-30 17:48 54.25441 48.21122 2511 ft 120 kts 176°
2026-04-30 17:48 54.22974 48.21321 2511 ft 116 kts 176°
2026-04-30 17:49 54.19775 48.21470 2511 ft 115 kts 176°
2026-04-30 17:50 54.16579 48.21618 2511 ft 115 kts 176°
2026-04-30 17:51 54.14180 48.21733 2511 ft 115 kts 176°
2026-04-30 17:52 54.11784 48.21849 2511 ft 115 kts 176°
2026-04-30 17:53 54.07964 48.23273 2109 ft 114 kts 163°
2026-04-30 17:54 54.05756 48.26454 1926 ft 101 kts 124°
2026-04-30 17:55 54.04184 48.30463 1953 ft 102 kts 122°
2026-04-30 17:56 54.02304 48.34058 1931 ft 101 kts 142°
2026-04-30 17:57 54.00576 48.36093 1913 ft 99 kts 143°
2026-04-30 17:58 53.98731 48.36111 1871 ft 104 kts 224°
2026-04-30 17:59 53.99532 48.33258 1669 ft 93 kts 334°
2026-04-30 18:00 54.01481 48.30902 870 ft 67 kts 328°
2026-04-30 18:00 54.02613 48.29298 1382 ft 79 kts 319°
2026-04-30 18:01 54.03304 48.27913 1847 ft 87 kts 281°
2026-04-30 18:02 54.01638 48.25728 1974 ft 120 kts 221°
2026-04-30 18:02 54.00092 48.22352 2091 ft 109 kts 236°
2026-04-30 18:03 53.98592 48.19195 1880 ft 114 kts 224°
2026-04-30 18:04 53.96665 48.19681 1724 ft 103 kts 113°
2026-04-30 18:05 53.98301 48.22718 1905 ft 100 kts
2026-04-30 18:06 54.00956 48.20397 1980 ft 116 kts 302°
2026-04-30 18:07 54.02501 48.15586 2108 ft 112 kts 303°
2026-04-30 18:08 54.03681 48.12011 2077 ft 120 kts 300°
2026-04-30 18:09 54.03934 48.06993 1967 ft 122 kts 233°
2026-04-30 18:10 54.01534 48.03287 1982 ft 117 kts 205°
2026-04-30 18:11 53.98703 48.00960 2093 ft 114 kts 208°